Elefsis, Greece

2:01 AM EEST on July 27, 2016 (GMT +0300)
Elefsis Air Base

Weather History for LGEL - January, 2013

Change the Weather History Date:

Monday, January 21, 2013

  Actual Average Record
Temperature  
Mean Temperature 58 °F -  
Max Temperature 64 °F 55 °F 68 °F (2007)
Min Temperature 51 °F 39 °F 33 °F (2000)
Degree Days  
Heating Degree Days 8    
Growing Degree Days 8 (Base 50)    
Moisture  
Dew Point 51 °F    
Average Humidity 76    
Maximum Humidity 94    
Minimum Humidity 52    
Precipitation  
Precipitation 0.00 in - - ()
Sea Level Pressure  
Sea Level Pressure 29.76 in    
Wind  
Wind Speed 5 mph ()    
Max Wind Speed 17 mph    
Max Gust Speed 30 mph    
Visibility 6.2 miles    
Events      
Averages and records for this station are not official NWS values.
T = Trace of Precipitation, MM = Missing Value Source: Averaged Metar Reports

Daily Weather History Graph

Daily Weather History Graph

Search for Another Location

Airport or City:

Trip Planner

Search our weather history database for the weather conditions in past years. The results will help you decide how hot, cold, wet, or windy it might be!

Date:

Astronomy

Jan. 21, 2013 Rise Set
Actual Time 7:38 AM EET 5:36 PM EET
Civil Twilight 7:09 AM EET 6:04 PM EET
Nautical Twilight 6:37 AM EET 6:37 PM EET
Astronomical Twilight 6:06 AM EET 7:08 PM EET
Moon 1:03 PM EET (1/21) 2:49 AM EET (1/21)
Length of Visible Light 10h 55m
Length of Day
9h 58m
Waxing Gibbous, 72% of the Moon is Illuminated
Jan 21
Waxing Gibbous
Jan 27
Full
Feb 3
Last Quarter
Feb 10
New
Feb 17
First Quarter

Hourly Weather History & Observations

Time (EET) Temp. Dew Point Humidity Pressure Visibility Wind Dir Wind Speed Gust Speed Precip Events Conditions
1:50 AM 53.6 °F 48.2 °F 82% 29.89 in 6.2 mi East 4.6 mph - N/A   Partly Cloudy
3:50 AM 53.6 °F 48.2 °F 82% 29.86 in 6.2 mi Calm Calm - N/A   Partly Cloudy
4:50 AM 53.6 °F 50.0 °F 88% 29.86 in 6.2 mi Calm Calm - N/A   Scattered Clouds
5:20 AM 53.6 °F 50.0 °F 88% 29.86 in 6.2 mi Calm Calm - N/A   Partly Cloudy
5:50 AM 51.8 °F 48.2 °F 88% 29.86 in 6.2 mi Calm Calm - N/A   Scattered Clouds
6:20 AM 51.8 °F 48.2 °F 88% 29.86 in 6.2 mi Calm Calm - N/A   Scattered Clouds
6:50 AM 51.8 °F 50.0 °F 94% 29.86 in 6.2 mi Calm Calm - N/A   Scattered Clouds
7:20 AM 53.6 °F 51.8 °F 94% 29.86 in 6.2 mi Variable 3.5 mph - N/A   Scattered Clouds
7:50 AM 51.8 °F 50.0 °F 94% 29.83 in 6.2 mi Calm Calm - N/A   Scattered Clouds
8:20 AM 51.8 °F 50.0 °F 94% 29.83 in 6.2 mi Calm Calm - N/A   Scattered Clouds
8:50 AM 53.6 °F 50.0 °F 88% 29.83 in 6.2 mi Calm Calm - N/A   Mostly Cloudy
9:20 AM 55.4 °F 51.8 °F 88% 29.83 in 6.2 mi Calm Calm - N/A   Mostly Cloudy
9:50 AM 59.0 °F 51.8 °F 77% 29.83 in 6.2 mi Calm Calm - N/A   Mostly Cloudy
10:20 AM 60.8 °F 51.8 °F 72% 29.83 in 6.2 mi SSE 9.2 mph - N/A   Mostly Cloudy
10:50 AM 60.8 °F 51.8 °F 72% 29.83 in 6.2 mi SSE 8.1 mph - N/A   Mostly Cloudy
11:20 AM 62.6 °F 51.8 °F 68% 29.83 in 6.2 mi SSE 8.1 mph - N/A   Mostly Cloudy
11:50 AM 62.6 °F 50.0 °F 63% 29.80 in 6.2 mi SSE 9.2 mph - N/A   Mostly Cloudy
12:20 PM 62.6 °F 50.0 °F 63% 29.77 in 6.2 mi SSE 6.9 mph - N/A   Mostly Cloudy
12:50 PM 62.6 °F 50.0 °F 63% 29.77 in 6.2 mi SE 13.8 mph - N/A   Mostly Cloudy
1:20 PM 62.6 °F 50.0 °F 63% 29.77 in 6.2 mi SSE 15.0 mph - N/A   Mostly Cloudy
1:50 PM 62.6 °F 48.2 °F 59% 29.74 in 6.2 mi SSE 11.5 mph - N/A   Mostly Cloudy
2:20 PM 64.4 °F 48.2 °F 56% 29.71 in 6.2 mi SSE 10.4 mph - N/A   Mostly Cloudy
2:50 PM 64.4 °F 46.4 °F 52% 29.71 in 6.2 mi SSE 15.0 mph - N/A   Scattered Clouds
3:20 PM 64.4 °F 48.2 °F 56% 29.71 in 6.2 mi SSE 15.0 mph 26.5 mph N/A   Scattered Clouds
3:50 PM 62.6 °F 48.2 °F 59% 29.71 in 6.2 mi SSE 13.8 mph 25.3 mph N/A   Scattered Clouds
4:20 PM 62.6 °F 51.8 °F 68% 29.68 in 6.2 mi SSE 16.1 mph 27.6 mph N/A   Partly Cloudy
4:50 PM 60.8 °F 51.8 °F 72% 29.68 in 6.2 mi SSE 16.1 mph 28.8 mph N/A   Partly Cloudy
5:20 PM 60.8 °F 51.8 °F 72% 29.68 in 6.2 mi SSE 12.7 mph 24.2 mph N/A   Partly Cloudy
5:50 PM 60.8 °F 51.8 °F 72% 29.68 in 6.2 mi SSE 13.8 mph - N/A   Partly Cloudy
6:20 PM 60.8 °F 53.6 °F 77% 29.68 in 6.2 mi SSE 12.7 mph 24.2 mph N/A   Scattered Clouds
6:50 PM 60.8 °F 53.6 °F 77% 29.68 in 6.2 mi SSE 12.7 mph 29.9 mph N/A   Mostly Cloudy
7:20 PM 60.8 °F 53.6 °F 77% 29.68 in 6.2 mi SSE 12.7 mph 24.2 mph N/A   Mostly Cloudy
7:50 PM 60.8 °F 53.6 °F 77% 29.68 in 6.2 mi SSE 17.3 mph - N/A   Mostly Cloudy
8:20 PM 60.8 °F 53.6 °F 77% 29.68 in 6.2 mi SSE 16.1 mph - N/A   Mostly Cloudy
8:50 PM 60.8 °F 53.6 °F 77% 29.68 in 6.2 mi SSE 11.5 mph - N/A   Mostly Cloudy
9:20 PM 60.8 °F 53.6 °F 77% 29.68 in 6.2 mi South 10.4 mph - N/A   Scattered Clouds
9:50 PM 60.8 °F 53.6 °F 77% 29.68 in 6.2 mi South 8.1 mph - N/A   Light Drizzle
10:20 PM 57.2 °F 51.8 °F 82% 29.68 in 6.2 mi South 5.8 mph - N/A   Scattered Clouds
10:50 PM 55.4 °F 51.8 °F 88% 29.68 in 6.2 mi Calm Calm - N/A   Scattered Clouds
11:50 PM 51.8 °F 48.2 °F 88% 29.68 in 6.2 mi NNW 3.5 mph - N/A   Scattered Clouds